Wind_Speed
71 70 71 74 74 73 72 72 71 69 70 71 68 63 58 53 50 51 48 41 38 38 39 39 36 35 33 29 29 28 25 20 16 14 13 12 12 13 14 12 10 7 4 2 1 2 4 6 8 9 10 12 13 13 11 8 8 10 12 13 14 15 17 19 19 18 17 18 19 21 23 25 26 27 27 29 29 30 30 31 31 32 32 33 34 35
72 72 72 75 77 76 75 74 72 70 70 72 71 66 62 57 52 53 50 43 41 39 39 39 35 34 33 31 30 28 24 22 19 16 16 15 12 12 15 14 13 11 8 6 4 2 2 3 5 7 8 10 12 13 12 10 7 8 10 11 13 14 16 17 19 19 18 17 18 20 22 23 25 26 27 28 29 28 29 30 30 30 31 31 32 33
73 74 74 76 78 79 77 75 73 71 71 72 73 69 65 61 56 53 51 48 47 43 39 39 36 34 33 30 30 29 25 24 22 19 19 18 14 12 13 13 14 14 12 9 6 4 2 1 3 4 6 8 10 11 12 11 8 7 8 9 11 13 14 16 17 19 18 17 17 18 20 21 23 25 27 28 28 28 28 28 28 29 29 29 30 30
74 76 77 76 78 80 79 77 75 73 72 72 73 71 68 64 59 55 51 50 50 45 41 40 37 35 33 30 30 30 27 27 26 22 21 21 17 13 13 11 12 15 14 11 8 5 3 2 1 2 3 5 8 10 11 11 9 7 7 8 10 12 13 14 16 18 18 18 17 17 18 20 22 24 26 26 27 27 27 27 27 27 27 28 28 29
77 79 79 78 79 82 81 79 77 74 73 73 74 73 71 67 62 58 53 51 49 44 41 41 39 35 34 33 32 31 30 29 27 24 23 23 20 16 13 11 11 13 14 12 10 7 4 2 1 1 1 3 5 8 10 10 10 8 7 7 8 10 11 12 14 16 17 17 17 16 17 19 21 22 24 24 25 26 26 26 25 25 25 26 27 27
79 80 80 79 79 81 82 80 78 77 75 73 74 75 74 71 67 62 56 53 51 46 43 44 44 38 32 32 33 33 31 29 27 25 26 24 20 18 15 12 11 13 14 13 11 9 5 3 3 1 0 1 3 6 8 9 10 9 7 6 7 9 10 10 12 13 15 16 16 16 16 17 19 20 21 22 23 24 25 25 25 24 24 24 25 26
81 81 80 80 80 81 82 82 81 79 77 74 74 76 78 75 71 67 61 56 54 52 47 46 50 45 36 33 33 34 32 30 28 26 25 22 20 20 17 14 12 12 13 13 11 10 6 4 4 3 2 1 1 4 6 7 8 9 8 6 6 7 8 9 10 11 12 14 15 15 15 16 17 18 19 20 21 22 24 24 24 24 23 23 23 24
82 82 81 82 82 81 82 84 83 81 79 77 76 77 79 77 75 71 66 60 56 55 52 48 50 50 43 38 35 35 35 32 29 26 24 23 21 21 20 17 14 12 12 12 12 11 7 5 6 4 3 2 1 1 3 5 7 7 7 6 5 6 7 8 9 9 10 11 13 13 14 15 15 16 17 18 19 20 22 23 23 23 23 22 22 22
84 83 82 83 83 82 83 84 85 84 82 80 77 77 79 80 79 74 69 64 58 57 57 53 51 51 47 44 39 36 36 34 30 28 25 23 23 24 22 20 17 14 13 13 13 12 8 7 7 6 4 4 3 1 1 3 5 6 6 5 5 5 6 6 8 9 9 9 10 12 13 13 14 15 16 16 17 18 19 21 22 22 22 21 21 21
85 84 84 84 84 84 85 86 87 87 85 83 80 79 80 82 82 78 72 68 61 59 60 55 52 53 51 48 44 39 37 35 32 31 27 24 25 26 24 22 20 17 16 16 15 13 9 8 8 7 6 6 5 3 2 1 2 3 4 4 4 4 5 5 6 7 8 8 9 10 11 11 13 14 15 15 16 16 17 19 20 21 21 21 21 20
88 87 86 85 86 86 87 87 87 89 88 86 84 83 83 84 85 82 78 74 65 61 62 56 53 55 55 52 47 41 38 36 35 33 29 26 27 29 26 23 23 21 20 20 17 14 10 9 10 9 7 7 6 5 4 3 2 1 2 3 3 3 4 5 5 5 7 8 8 9 9 10 11 12 13 14 14 15 16 17 18 19 20 20 20 20
91 90 89 88 88 89 89 88 87 89 90 88 87 86 85 85 87 86 83 78 71 66 63 58 55 57 59 56 51 45 40 39 39 35 32 30 31 32 27 23 24 24 24 23 20 16 12 11 12 12 10 9 8 7 6 5 4 3 1 1 1 2 3 4 4 4 5 6 7 8 8 8 9 10 11 12 13 14 14 15 16 17 18 19 19 19
94 93 92 91 90 90 90 88 87 88 91 91 89 88 86 85 86 87 85 81 77 74 69 64 59 58 60 58 54 50 45 43 42 40 37 35 35 33 27 24 26 25 24 23 22 19 15 13 14 14 12 11 10 9 7 7 6 5 4 3 2 1 1 3 3 4 4 5 6 7 7 7 8 8 9 10 11 12 12 13 14 15 16 17 18 19
95 95 94 93 92 91 90 89 88 87 90 93 92 90 88 86 84 85 86 84 83 81 77 73 66 61 61 59 57 55 51 47 46 45 44 41 38 33 25 25 27 24 22 22 23 21 19 16 15 16 15 13 12 11 9 9 8 7 6 6 5 4 3 2 3 3 4 5 6 7 7 8 8 8 8 8 9 10 10 11 12 12 13 14 16 17
97 97 96 95 93 92 91 90 89 88 89 92 94 93 90 87 85 84 85 86 87 86 83 79 72 65 63 61 59 59 57 53 50 51 50 45 40 33 26 28 31 29 25 24 24 25 23 20 17 16 17 15 13 13 12 11 10 10 8 8 8 6 5 4 3 3 4 5 6 7 8 8 9 8 8 7 8 8 9 9 10 10 11 12 13 14
98 98 98 96 94 92 92 91 90 89 89 91 95 95 92 90 88 87 87 88 90 88 85 82 76 69 65 64 63 62 61 58 55 55 53 47 43 38 34 35 37 35 31 30 29 30 27 23 20 17 18 18 15 14 14 13 12 11 10 9 8 7 7 6 5 5 4 4 5 7 8 9 10 9 9 8 8 7 7 8 9 9 10 10 11 12
99 99 99 96 94 94 93 92 91 91 90 91 95 96 95 92 91 90 91 92 92 90 86 84 80 73 69 68 66 65 64 62 59 57 55 51 46 42 39 39 40 39 37 37 36 34 29 24 23 22 20 20 19 17 16 17 15 13 11 10 8 7 7 7 7 7 7 6 5 6 7 9 10 11 10 9 8 7 7 7 7 8 8 9 9 10
98 99 98 96 96 96 95 94 93 92 91 92 93 95 97 95 93 94 94 93 92 90 87 84 82 78 73 71 69 67 65 62 59 58 58 56 51 45 41 42 44 43 41 41 41 37 31 27 29 28 23 21 20 18 18 19 20 17 13 11 10 9 9 8 7 8 9 8 7 6 7 8 10 11 12 11 10 9 8 7 7 6 7 8 8 9
97 98 98 98 98 97 96 96 94 93 93 92 91 93 97 98 97 97 96 95 92 90 87 85 83 81 77 74 71 68 65 63 60 59 59 59 57 51 45 44 47 46 42 43 44 41 35 33 35 32 25 22 21 18 18 20 21 20 17 14 13 12 12 10 8 8 9 10 9 7 7 9 10 11 13 14 13 11 10 9 8 7 7 7 7 8
97 99 99 100 100 98 97 96 95 94 94 93 91 92 96 98 99 99 98 97 94 90 88 85 84 83 80 76 73 70 66 63 63 62 60 59 60 56 50 48 49 47 44 44 46 43 38 36 36 32 27 26 25 22 19 19 20 21 21 19 16 15 14 13 12 10 9 10 11 9 7 8 10 11 13 15 15 14 12 11 9 9 8 7 7 8
97 99 100 100 100 99 98 97 96 95 95 94 94 94 94 96 99 100 98 98 96 93 90 87 85 86 85 81 75 70 66 63 63 65 63 59 59 59 56 53 53 50 47 46 48 46 41 37 36 34 32 31 29 25 21 20 19 21 24 24 21 18 17 15 12 11 10 11 12 10 9 9 11 12 13 14 15 16 15 13 11 10 9 9 9 8
97 100 101 101 101 101 100 99 97 97 96 96 96 96 95 96 99 100 101 101 98 94 92 89 87 88 88 85 79 72 69 65 61 64 66 60 57 60 60 57 56 55 52 50 50 48 43 38 36 36 37 35 32 27 24 23 21 22 25 27 26 24 21 16 12 12 13 14 14 14 12 11 13 16 16 16 16 17 17 16 14 12 11 10 10 10
96 99 100 100 102 102 102 102 101 99 98 97 96 97 98 98 99 101 103 104 100 96 94 92 89 88 87 87 85 78 74 68 59 60 67 65 60 60 62 61 60 59 57 54 53 50 44 38 36 37 39 38 34 30 28 26 25 24 26 27 26 26 23 18 14 13 14 15 17 18 17 14 14 17 19 20 20 19 18 17 17 15 13 12 11 11
95 97 99 100 102 103 104 104 102 100 99 98 99 100 100 101 101 101 103 104 103 100 98 95 92 90 87 87 86 82 79 75 67 63 67 71 68 63 62 65 65 62 62 59 57 55 49 41 36 38 42 40 36 32 30 28 27 27 26 26 26 26 23 20 17 14 14 16 17 18 19 18 16 16 19 22 24 23 20 18 18 17 16 14 13 12
94 95 97 99 101 103 104 104 103 102 101 101 103 103 101 101 101 101 102 103 104 103 101 99 96 92 90 89 87 84 82 79 75 73 71 72 73 68 63 66 69 66 64 62 61 59 55 46 38 39 44 43 39 35 32 30 29 29 29 28 28 27 24 22 20 18 17 17 15 14 18 20 20 19 20 22 25 26 23 19 18 18 18 17 16 15
92 94 96 98 99 102 104 104 103 104 104 104 105 105 102 101 101 101 100 101 103 104 102 101 99 96 92 90 88 87 85 82 80 80 78 74 75 73 68 67 70 71 68 65 64 62 59 52 43 41 43 44 43 41 37 34 33 32 31 30 30 29 25 23 23 22 22 20 14 11 15 20 24 25 24 23 25 27 27 24 21 20 20 19 19 18
91 93 95 96 98 99 102 103 104 105 105 106 106 105 103 103 102 101 99 98 100 102 102 101 100 98 94 91 89 87 87 87 85 83 84 81 79 78 75 70 70 73 73 70 67 65 63 58 50 46 44 44 44 43 40 38 37 35 33 32 31 30 27 24 22 20 21 21 17 16 21 24 26 27 25 24 25 27 29 30 28 25 23 22 21 21
89 91 93 95 96 97 99 102 104 106 106 107 107 106 104 104 103 100 98 97 97 98 100 101 100 98 95 93 91 89 88 89 89 88 88 88 85 83 82 78 74 73 75 74 71 68 67 64 59 54 49 46 45 43 40 39 38 37 35 34 32 31 29 26 23 21 22 22 21 22 23 24 26 27 27 29 31 31 31 32 32 30 27 24 24 24
86 89 91 92 94 96 97 100 104 107 108 109 110 108 106 106 105 101 98 98 98 97 98 99 99 98 97 94 93 91 89 89 91 92 90 90 90 88 86 84 81 78 77 76 74 71 70 70 67 61 56 51 47 44 41 41 41 39 37 36 34 33 32 29 25 25 25 27 26 25 24 24 28 31 32 34 35 35 33 32 33 33 30 28 28 27
84 87 88 89 92 95 96 99 103 107 109 110 111 110 108 107 105 102 100 99 99 97 96 96 98 99 99 96 94 93 91 91 92 92 92 92 93 93 91 88 86 84 83 82 79 75 73 74 72 66 61 57 52 48 46 46 46 44 41 39 37 36 37 34 30 30 30 29 29 29 30 31 34 36 36 36 36 36 35 34 34 34 34 33 31 29
82 85 86 86 89 93 95 97 100 105 108 111 112 111 110 108 107 105 102 101 100 98 96 95 96 98 99 98 95 93 93 93 93 92 93 94 94 94 94 92 90 88 88 87 85 82 78 77 76 71 67 64 60 58 56 53 51 49 47 44 41 39 38 35 32 31 32 33 34 35 36 37 38 39 38 38 38 38 38 37 35 35 36 36 33 30
82 84 85 84 85 89 94 96 98 102 106 109 111 112 111 110 109 107 105 103 102 99 97 95 95 96 97 98 97 96 94 94 94 93 94 95 95 94 93 93 92 91 91 89 87 86 84 82 80 76 74 72 70 68 65 61 58 56 53 52 50 47 43 40 36 32 32 35 38 39 40 43 44 44 43 42 41 40 39 39 37 36 36 37 35 32
83 84 85 83 83 87 92 96 98 100 104 108 110 112 112 111 110 109 107 105 105 103 101 99 97 97 97 97 98 98 96 94 94 95 95 96 97 97 96 94 93 92 92 91 88 86 85 85 84 82 80 79 78 76 72 67 65 64 61 59 59 58 56 55 52 45 41 41 40 39 41 44 47 47 46 44 44 42 41 41 40 38 37 36 35 34
85 86 86 84 84 85 88 94 98 99 101 106 109 112 113 113 112 112 111 108 108 107 105 102 100 100 99 99 99 99 98 96 95 95 95 96 97 98 99 98 96 94 94 93 91 88 86 86 86 85 84 84 83 82 78 73 70 69 67 66 66 66 64 62 60 57 55 52 47 43 42 44 46 49 48 45 44 43 43 44 43 40 38 38 37 36
87 87 86 86 85 85 87 92 96 97 99 102 106 109 113 115 115 115 114 112 110 108 107 105 103 101 100 100 100 100 99 98 97 96 96 96 97 99 100 100 100 98 97 96 94 92 90 88 88 87 87 86 86 85 83 80 76 74 74 73 73 72 70 67 64 62 61 59 55 52 51 50 49 50 51 48 44 44 45 46 45 42 40 40 40 39
90 88 87 87 88 88 89 90 94 96 98 99 102 106 111 114 115 115 115 113 111 109 108 107 106 105 102 101 101 101 100 100 99 98 97 96 97 99 100 101 101 101 100 99 98 96 94 92 91 89 88 88 87 86 86 84 82 80 78 78 77 76 74 72 70 68 67 65 62 59 59 59 56 53 52 51 48 45 45 46 47 45 43 42 42 42
92 91 89 89 89 90 90 90 92 95 96 97 99 103 108 111 114 115 115 114 112 111 110 110 109 107 105 103 101 101 102 103 102 100 97 97 98 99 100 101 100 100 101 102 101 99 98 96 94 92 91 90 89 88 88 87 85 84 82 81 80 78 77 75 73 72 71 70 68 65 63 63 62 60 58 56 53 50 47 47 48 47 46 45 44 44
92 93 92 91 91 91 91 90 90 92 94 96 97 99 104 109 112 114 115 115 114 114 113 112 110 109 108 105 103 102 103 104 105 103 100 99 98 99 99 100 100 101 102 103 103 102 101 99 97 95 93 92 91 90 89 89 88 86 85 84 82 80 79 77 75 74 73 72 70 69 67 65 64 63 62 60 60 58 54 51 50 48 46 45 45 46
89 93 94 94 93 93 92 91 90 91 92 94 95 96 99 103 109 113 115 116 116 114 114 113 111 111 111 109 107 105 105 105 105 104 102 101 99 98 99 101 102 103 104 104 104 103 102 101 99 97 95 94 93 92 90 89 89 88 87 86 84 82 81 79 78 76 75 74 73 71 70 68 67 65 64 64 63 63 61 58 56 54 51 48 47 48
82 88 92 95 96 95 93 92 91 91 91 91 93 95 97 100 105 109 112 116 116 114 113 113 112 112 113 113 111 109 107 105 105 103 102 101 100 100 101 102 104 105 105 105 105 104 103 103 102 100 98 96 95 94 93 91 90 89 89 88 86 85 83 82 80 79 77 76 75 74 72 71 69 68 67 67 66 66 65 63 62 61 59 55 51 50
74 81 87 92 96 96 95 94 92 92 92 92 92 94 97 100 103 105 109 114 115 113 112 113 114 114 116 116 115 112 110 108 106 104 103 103 103 103 103 105 106 106 106 106 106 105 104 104 103 102 100 98 96 96 95 94 92 91 90 89 88 87 85 84 82 81 80 79 77 76 75 73 72 71 70 70 69 68 68 67 66 65 64 62 58 55
68 73 79 86 92 95 96 95 93 93 93 93 94 94 96 99 101 104 107 110 111 113 113 113 114 116 117 117 116 115 114 112 110 108 106 105 106 106 107 108 108 108 107 107 106 106 106 105 104 103 103 102 100 98 97 96 94 93 91 90 89 88 87 86 85 84 82 81 80 79 78 77 75 74 73 73 72 71 71 70 69 68 67 66 64 61
61 67 72 78 84 90 94 95 94 94 94 95 95 96 96 98 100 103 105 107 109 112 114 114 115 117 118 118 118 117 117 116 114 113 111 110 109 108 108 108 108 109 109 108 107 107 106 105 104 103 104 104 103 101 99 98 96 95 94 93 91 90 90 89 89 87 86 85 84 82 81 80 79 78 77 76 75 74 74 73 72 71 70 69 67 66
56 61 66 71 77 82 87 91 93 95 96 97 97 98 98 99 100 102 105 107 108 110 112 114 116 117 118 118 118 118 118 119 118 117 115 113 111 110 109 109 109 110 111 110 109 108 106 105 104 104 104 105 104 104 102 100 99 98 97 96 95 94 92 92 92 91 89 88 87 86 85 84 83 82 80 79 78 78 77 76 75 74 73 72 70 69
52 56 59 64 69 74 79 84 88 92 96 98 99 100 100 101 101 102 104 107 108 109 110 112 114 116 118 119 119 119 120 120 120 119 118 116 114 113 112 111 111 111 112 112 111 109 107 106 105 105 105 105 105 104 104 103 101 100 98 98 97 96 95 94 93 93 92 91 90 89 88 87 86 85 84 82 81 81 80 79 78 77 76 75 73 72
49 52 55 58 62 66 71 77 82 86 91 94 97 99 101 101 102 102 103 105 107 109 109 110 112 115 117 119 120 121 121 121 121 121 120 118 117 116 116 115 114 114 113 113 113 112 110 109 108 107 106 105 105 104 104 104 103 102 100 99 98 98 97 96 95 94 93 93 92 91 90 89 89 88 87 86 85 84 83 82 81 80 79 77 76 75
47 50 53 55 58 62 66 70 74 79 84 89 93 96 99 100 102 103 103 104 106 108 109 109 111 112 115 118 120 121 122 122 121 121 121 120 120 119 119 118 118 117 116 116 115 114 113 112 111 110 108 107 106 105 105 104 104 104 103 101 100 99 99 98 97 96 95 94 94 93 92 91 90 90 89 88 88 87 86 85 83 82 81 80 80 79
43 48 50 53 56 59 63 65 69 73 77 82 87 90 94 98 101 103 105 106 106 107 108 110 111 112 115 117 119 121 121 121 121 121 122 122 122 122 122 122 121 120 119 118 118 117 116 114 113 112 110 109 108 107 106 105 105 104 103 103 102 101 100 99 98 98 97 97 96 95 94 93 92 92 91 90 90 90 89 88 87 85 84 83 82 82
39 43 47 50 54 57 60 62 65 68 72 76 81 85 89 93 98 101 104 106 107 107 108 109 111 112 114 116 118 119 120 120 121 122 122 123 124 125 125 125 124 123 122 121 120 120 119 117 115 114 112 112 111 110 109 107 106 105 104 104 103 102 102 101 100 100 99 99 98 97 96 95 94 94 93 92 91 91 91 91 90 88 87 86 85 85
39 41 43 47 51 54 57 60 63 65 69 72 76 80 84 88 93 97 101 104 106 107 108 109 110 111 113 114 116 118 119 120 121 122 123 124 125 125 126 127 127 126 125 124 123 122 122 120 119 117 116 115 114 112 111 110 109 108 107 106 105 104 103 103 102 102 101 101 100 100 99 98 97 97 96 95 94 93 93 92 91 90 90 89 88 88
42 42 43 45 47 50 54 57 60 63 67 70 73 76 80 84 88 92 96 99 102 104 106 107 108 109 111 112 114 116 118 119 120 122 123 124 125 125 126 127 128 128 128 127 126 125 124 123 122 121 120 119 117 115 114 112 111 111 110 109 108 107 106 105 104 103 103 102 101 101 101 100 100 99 99 98 97 96 95 94 93 93 92 92 92 91
Wind_Direction
207 207 206 206 205 204 205 205 202 200 199 198 199 199 199 200 200 197 195 188 182 189 194 191 193 193 191 199 208 212 213 210 209 212 212 212 213 212 214 222 227 227 233 250 314 21 28 43 54 52 51 51 51 54 56 59 58 53 50 48 50 56 61 63 63 63 63 62 61 59 56 52 49 47 47 48 50 50 51 52 53 53 54 56 59 63
208 208 207 207 206 205 205 203 201 202 201 200 200 200 202 203 202 201 200 193 187 192 198 196 193 190 190 198 206 209 209 206 206 210 212 214 218 218 216 223 234 239 241 246 256 274 350 37 62 58 55 54 53 54 55 58 57 53 50 45 45 49 54 58 61 62 63 62 62 61 60 56 53 50 49 50 51 51 51 52 53 54 55 57 59 62
209 208 208 208 207 206 205 203 202 203 203 201 200 201 202 204 203 201 200 198 195 193 197 200 197 195 195 199 205 206 204 206 208 213 217 218 218 217 219 224 231 239 247 251 253 260 293 357 60 62 59 57 58 57 56 59 59 54 51 44 43 47 52 54 57 60 61 61 61 60 60 58 55 53 51 51 52 52 51 52 53 54 55 58 60 61
210 209 209 208 208 207 206 203 202 204 204 202 201 200 202 204 204 203 199 199 200 196 195 198 198 202 202 200 204 205 203 207 212 218 221 220 219 215 218 223 227 234 244 251 249 249 270 297 37 64 59 58 63 63 61 62 62 59 50 44 41 45 54 56 56 59 60 60 59 58 58 58 56 53 51 51 52 52 52 52 53 54 55 57 59 60
211 210 209 209 209 208 207 204 202 204 205 204 202 200 202 203 204 204 202 201 201 197 195 196 197 202 205 206 207 206 207 210 212 214 215 219 226 222 213 214 225 231 234 241 244 242 252 264 253 81 54 57 69 70 68 66 65 66 57 44 41 44 53 60 59 59 61 61 59 58 57 57 56 54 52 51 52 53 53 54 54 54 56 57 58 59
212 211 210 209 210 209 208 205 203 204 206 206 204 202 202 203 205 205 203 202 201 198 195 196 198 200 201 206 208 205 206 209 210 210 211 219 227 223 211 209 227 235 227 226 235 241 247 250 235 191 164 57 75 76 75 72 70 71 67 52 41 43 49 57 61 62 63 64 62 60 59 58 58 57 55 52 52 53 53 54 55 55 56 56 57 58
212 212 210 210 210 211 209 206 204 203 205 206 206 204 202 203 206 207 203 200 201 200 198 196 198 199 197 200 205 204 203 205 208 211 214 220 224 219 212 209 224 234 221 218 231 239 243 246 231 198 193 249 79 83 82 78 75 74 74 64 47 45 48 51 57 60 63 66 65 63 62 61 60 59 57 55 53 53 53 54 55 56 56 56 57 58
212 212 211 210 210 211 210 208 205 204 204 206 207 206 204 204 205 206 203 199 200 202 203 200 197 198 197 196 201 205 203 201 204 210 214 217 218 215 212 211 218 226 221 222 230 232 230 234 228 204 189 225 259 91 86 83 79 78 77 71 53 47 49 47 49 53 57 63 66 65 64 63 62 61 59 57 55 54 53 53 54 55 55 56 57 58
212 212 212 211 211 211 211 209 206 205 205 206 207 207 207 206 205 205 201 198 200 203 206 205 199 197 194 193 199 202 201 200 203 208 211 213 215 214 213 213 215 219 225 230 229 225 223 223 222 210 192 207 236 257 80 85 85 85 80 75 60 47 51 47 42 43 48 55 62 65 66 64 63 62 61 58 57 55 55 54 54 54 55 55 56 58
213 212 212 212 211 211 211 209 207 206 205 205 207 208 208 207 205 205 201 197 199 201 203 204 202 199 193 191 196 199 198 200 204 205 207 213 218 218 216 212 210 213 225 234 233 227 226 221 218 215 201 203 219 247 280 311 91 99 90 79 60 42 46 48 39 35 37 43 51 58 63 64 63 63 61 60 58 56 55 54 53 53 53 54 55 56
213 212 212 212 212 212 212 210 207 206 206 205 207 208 209 209 206 205 203 199 199 200 201 204 204 202 198 194 197 200 198 200 202 204 208 216 221 219 216 212 207 208 218 231 235 229 226 224 222 220 211 208 213 225 254 280 292 150 112 90 69 37 31 41 38 29 30 33 39 46 51 56 60 62 61 60 59 56 55 54 53 52 52 51 52 54
212 212 211 211 212 213 212 211 209 208 207 206 207 209 210 210 207 207 206 202 201 201 201 204 204 203 203 202 202 205 204 201 202 203 207 217 219 214 214 213 207 208 216 229 235 231 228 226 225 224 218 213 214 220 237 258 276 270 217 134 97 33 14 24 27 21 21 23 27 33 37 43 51 58 60 60 60 57 54 52 51 50 50 49 49 50
212 212 211 211 212 213 213 212 210 209 208 207 208 209 210 211 209 208 208 205 204 204 204 206 207 205 205 207 207 208 209 207 205 204 207 215 216 212 216 215 207 208 217 228 236 236 232 229 229 229 224 216 214 220 232 244 258 264 253 238 223 243 335 358 9 6 6 10 14 19 24 28 36 45 53 57 59 58 55 52 50 49 48 47 46 46
212 212 212 211 211 212 213 212 210 209 209 209 208 209 210 212 211 211 210 209 208 207 207 209 210 208 208 210 209 210 212 211 208 208 207 209 212 215 218 214 207 209 220 234 244 245 239 230 228 231 226 219 215 217 226 236 243 248 246 244 243 244 258 306 345 356 354 354 359 3 9 14 20 29 37 44 49 53 53 50 49 47 45 44 43 43
212 213 213 211 211 211 212 212 211 210 210 210 209 209 210 211 212 212 213 213 212 211 210 211 211 211 211 212 210 210 213 213 211 212 210 205 209 213 210 206 204 202 213 230 241 246 245 233 228 231 227 222 221 221 222 228 235 238 238 237 240 246 252 272 307 333 344 345 345 348 354 360 5 12 18 24 30 37 42 43 44 43 41 40 39 39
212 213 213 212 211 211 212 213 212 211 211 211 210 210 210 211 212 213 214 215 214 213 213 214 213 212 213 214 212 211 214 214 213 215 215 212 211 211 206 204 201 196 204 219 228 236 240 234 230 233 229 225 225 228 228 228 234 240 242 242 242 249 258 270 292 310 326 334 335 337 342 348 354 360 2 6 11 17 23 28 31 34 34 34 34 34
211 212 213 213 212 211 212 212 212 212 211 211 211 210 210 211 213 214 215 216 215 213 213 215 215 214 214 215 214 212 213 215 215 216 218 219 217 214 212 210 203 196 204 215 222 229 232 230 231 232 230 225 222 226 232 233 236 242 248 253 251 257 266 274 288 300 311 319 324 328 332 337 346 352 352 352 356 359 2 9 14 19 23 24 25 26
211 212 213 213 213 213 212 212 212 212 212 212 212 211 211 212 213 215 216 217 215 213 214 215 215 215 216 216 216 214 213 214 217 219 221 222 221 217 215 213 206 201 206 213 219 224 221 220 229 230 225 221 219 224 232 234 239 243 247 250 253 260 266 269 281 292 301 306 308 314 321 328 337 345 347 345 345 345 345 348 352 357 3 8 11 12
212 212 212 212 213 214 213 213 212 212 212 213 213 212 212 213 214 216 217 217 216 214 214 216 216 216 216 217 218 217 216 214 216 221 223 224 224 220 215 212 209 207 209 211 215 219 214 212 223 227 223 221 224 228 229 232 240 246 248 246 245 251 257 260 265 274 286 293 296 299 306 316 326 334 339 340 340 340 338 335 333 334 340 347 353 356
212 212 212 212 213 214 214 214 213 213 213 213 213 213 213 214 215 216 217 218 216 215 215 215 216 217 216 217 218 219 218 217 217 220 222 223 224 222 216 213 212 210 210 211 213 216 215 214 219 222 221 223 229 230 227 228 236 245 249 244 237 243 251 253 251 255 272 285 287 285 284 295 309 321 329 333 336 337 336 331 325 323 323 325 331 338
212 213 212 212 213 213 214 214 214 214 214 213 213 214 214 214 215 216 218 218 217 215 215 215 216 217 216 216 217 218 219 218 218 219 220 221 223 222 217 215 214 212 209 212 215 216 218 220 220 220 220 222 226 227 226 229 234 242 248 248 246 249 253 256 259 263 273 281 282 284 285 287 298 312 320 323 328 332 333 329 323 319 315 314 316 320
212 213 213 212 213 213 214 214 215 215 214 214 215 215 214 214 215 216 218 218 216 216 216 216 216 217 218 216 217 219 220 218 219 221 220 220 223 222 217 214 213 212 209 212 217 218 219 223 225 224 221 219 221 222 222 228 235 241 245 250 254 255 255 265 284 283 274 279 291 298 301 300 301 308 313 316 320 324 325 323 320 316 311 308 307 307
212 213 213 212 212 213 213 214 214 215 215 215 216 216 216 215 215 216 218 217 216 215 216 217 217 218 218 218 218 220 221 220 219 221 220 219 221 221 218 213 211 211 209 211 217 219 219 224 229 229 223 218 216 217 219 225 230 235 240 246 253 256 254 262 281 282 269 276 295 300 299 301 302 304 306 307 309 312 314 315 314 312 306 303 301 298
212 213 213 212 212 213 214 214 214 215 215 216 217 217 217 217 216 216 217 217 216 215 215 217 218 219 219 219 219 219 221 221 219 221 221 219 220 222 219 215 212 210 209 211 217 221 222 224 230 231 226 218 213 215 220 223 227 233 239 245 251 254 253 257 270 276 267 270 280 286 289 293 296 296 296 297 298 300 302 306 307 306 302 298 295 292
213 212 213 212 212 213 214 214 215 215 215 216 218 218 218 218 217 217 217 217 217 216 215 216 218 219 219 220 219 219 220 220 219 221 223 221 220 221 220 217 215 212 211 213 218 224 225 225 225 228 227 221 214 214 218 221 225 231 237 242 247 248 248 254 261 259 254 257 267 283 291 289 287 288 287 288 290 291 292 294 298 298 296 294 291 289
214 213 213 212 212 213 214 214 215 216 216 216 218 219 218 218 219 218 218 218 217 217 216 216 217 219 220 220 220 220 220 221 221 221 223 223 221 220 220 219 218 215 214 215 219 225 226 225 221 221 222 219 213 213 216 219 223 227 230 233 236 236 238 247 253 247 238 240 251 268 268 264 270 281 283 281 283 285 284 284 286 288 288 289 290 289
215 214 213 213 212 213 214 214 215 216 217 218 219 219 219 219 219 219 219 219 219 218 217 217 218 218 220 220 221 221 221 222 222 222 223 223 222 219 219 220 219 217 216 217 220 224 225 224 221 220 219 215 211 212 215 219 221 225 228 229 227 227 228 235 245 244 235 237 241 239 239 248 264 274 275 274 276 278 278 278 279 282 284 288 292 292
216 215 213 213 213 213 213 214 215 216 217 219 219 220 220 220 219 219 219 220 220 220 219 218 218 219 220 221 221 221 222 223 224 223 223 225 224 221 220 221 221 220 219 220 221 223 224 223 223 224 221 215 211 213 217 219 219 222 226 225 223 224 225 226 231 234 234 237 239 238 243 253 258 258 263 270 273 272 271 271 274 278 281 285 289 291
216 216 214 213 213 213 213 214 215 216 217 219 219 219 220 221 220 219 219 220 220 220 220 219 219 219 221 222 222 222 222 223 225 225 224 225 226 225 223 223 223 223 222 222 222 224 224 223 225 226 223 217 213 215 221 223 220 219 221 222 222 224 225 224 222 224 232 236 237 238 239 239 240 247 258 266 268 269 267 265 268 274 277 279 284 287
216 217 215 213 213 213 214 214 215 216 218 219 220 219 219 221 221 220 219 220 221 221 220 220 219 219 220 222 223 223 223 223 225 226 226 225 226 228 227 226 225 225 225 225 225 225 224 225 227 227 223 219 217 219 226 228 222 217 217 221 225 226 226 226 223 224 231 237 238 236 232 233 243 253 259 261 263 266 265 261 263 270 274 277 280 285
216 217 216 214 213 213 213 215 216 217 218 219 220 220 220 220 221 221 219 220 221 221 220 220 220 220 220 221 222 224 224 224 225 227 227 227 227 228 229 228 227 227 227 228 228 228 227 226 228 226 222 222 223 225 230 233 227 220 217 220 226 227 225 226 228 230 234 237 239 240 239 242 252 257 258 260 263 263 261 259 259 264 272 275 277 281
216 217 216 214 213 213 213 214 216 217 219 219 220 220 220 221 221 221 220 220 220 221 221 221 221 221 221 221 221 222 224 225 226 227 228 228 228 228 228 229 229 229 229 230 231 231 229 228 228 226 223 223 226 230 233 233 230 227 224 224 228 229 228 230 234 235 234 234 237 244 247 248 252 255 257 261 262 260 258 257 256 259 267 272 273 276
216 217 217 214 213 213 213 214 216 217 219 219 220 220 220 221 222 222 221 221 221 221 220 220 220 221 221 221 222 222 222 224 226 227 228 228 229 229 229 229 230 230 230 231 231 231 230 229 229 228 226 226 228 232 234 233 230 228 229 230 233 235 237 240 242 241 239 238 240 246 249 249 249 252 255 259 260 257 255 254 252 255 262 267 269 271
216 217 217 215 213 213 213 214 215 217 218 220 220 220 220 220 221 222 222 221 221 222 221 220 220 221 221 221 222 223 223 224 225 226 228 229 229 230 230 230 230 231 231 231 231 231 231 231 231 230 230 229 230 233 235 235 231 229 229 231 235 238 241 243 244 243 243 244 245 246 248 251 252 252 253 257 257 253 251 252 250 252 258 262 264 266
218 218 217 216 215 214 214 214 215 216 218 219 220 221 221 220 220 221 222 221 221 222 223 222 221 221 221 222 222 223 223 224 225 227 228 229 229 230 231 231 230 231 231 232 232 232 232 233 233 233 233 233 233 235 236 236 235 232 231 233 236 239 242 243 244 244 244 246 246 245 245 248 252 253 251 252 252 249 248 250 249 251 255 257 259 262
218 219 218 218 217 215 214 215 215 216 217 218 220 221 222 221 221 222 222 222 222 222 223 224 223 222 222 222 223 223 224 224 226 227 228 229 230 231 231 232 232 231 232 232 233 234 234 234 234 234 235 235 235 236 237 237 237 236 235 235 237 239 241 242 243 244 245 246 247 247 245 245 248 250 250 249 248 247 247 248 247 248 251 253 255 259
217 219 219 218 218 218 216 215 215 216 217 218 220 222 222 222 221 222 223 223 222 222 223 224 225 224 224 223 223 224 224 225 225 226 227 229 230 231 232 232 233 233 233 233 234 234 234 234 235 235 236 236 237 237 238 239 239 238 238 238 238 239 241 242 242 243 244 246 247 247 246 246 246 248 249 248 247 247 248 249 247 246 249 250 252 255
216 218 219 219 219 219 218 217 216 217 217 218 219 222 223 224 223 222 223 223 223 222 223 224 225 226 225 225 225 225 226 226 225 225 226 228 230 231 232 233 233 234 234 234 234 234 235 235 235 236 236 237 238 238 239 239 240 240 240 240 240 240 241 242 243 243 244 245 246 246 246 246 246 247 247 246 246 247 248 250 248 246 248 250 252 254
216 218 219 220 220 220 219 218 218 218 219 219 219 221 223 225 225 223 223 224 224 223 223 224 225 226 226 226 226 226 227 227 227 226 227 228 230 231 232 233 233 234 234 234 234 234 235 235 236 236 236 237 238 239 239 240 240 240 241 241 241 241 242 242 243 243 244 245 245 246 246 246 245 246 246 245 246 246 248 249 249 248 249 251 253 254
216 218 219 220 221 221 220 219 218 219 219 220 220 221 222 224 225 225 225 224 224 224 224 224 224 225 227 227 226 227 227 228 228 228 228 229 230 231 233 233 234 234 234 234 234 234 235 236 236 236 236 237 238 239 239 240 241 241 242 242 242 242 242 242 242 243 243 244 245 245 245 245 245 245 245 245 246 246 247 249 249 250 250 251 253 253
216 218 219 220 222 222 222 221 220 219 220 221 221 222 222 223 225 226 227 226 225 224 225 225 225 225 226 227 227 227 227 228 229 229 229 229 230 231 232 233 234 234 234 234 234 234 234 235 236 236 237 237 238 238 239 240 240 241 241 242 242 243 243 243 243 243 243 243 244 244 245 245 244 244 245 245 246 246 247 248 249 249 250 251 251 251
218 218 219 220 222 223 223 222 221 220 220 221 222 223 223 223 224 226 227 228 227 226 225 225 226 226 226 227 227 227 228 228 228 229 229 229 230 231 232 233 234 235 235 235 235 235 235 235 235 236 236 237 237 238 238 239 240 240 241 241 242 243 243 243 243 243 243 243 244 244 244 244 244 245 245 245 246 246 247 248 248 249 250 250 250 249
219 220 220 221 222 223 223 223 222 222 221 222 223 224 224 224 224 225 226 228 228 228 226 226 226 227 227 227 227 227 228 228 228 228 229 229 230 231 232 233 235 235 236 236 235 235 235 235 235 235 236 237 237 237 238 238 239 240 240 241 241 242 243 244 244 244 244 244 244 244 244 244 245 245 245 245 246 247 247 248 248 249 249 249 249 249
220 221 221 222 223 224 224 224 223 223 223 223 223 224 225 225 225 225 226 227 228 229 228 227 227 227 228 228 228 227 228 229 229 229 229 230 231 232 233 234 235 236 237 237 236 236 236 236 236 236 236 236 237 237 238 238 239 239 240 240 241 242 243 244 244 245 244 244 244 244 244 244 245 245 245 245 245 246 247 247 248 248 248 248 248 248
222 222 223 223 224 225 225 224 224 224 224 224 224 224 225 226 226 226 226 227 228 229 229 229 229 229 229 229 229 228 228 229 229 230 230 230 231 232 233 234 235 236 237 238 238 237 237 236 237 237 236 236 237 237 237 238 238 239 239 240 240 241 242 242 243 244 244 244 244 244 244 244 245 245 245 245 245 245 246 247 247 247 248 248 248 248
224 224 224 224 225 225 226 225 224 224 224 225 225 225 226 227 227 228 228 228 228 229 229 230 230 230 230 230 230 230 229 229 229 230 231 231 231 232 233 234 235 236 237 238 238 238 238 237 237 237 237 237 237 237 237 238 238 238 238 239 240 240 241 241 242 243 244 244 244 244 244 244 244 245 245 245 245 245 246 246 247 247 247 247 247 248
227 226 225 225 225 225 226 226 225 225 225 225 226 226 227 227 228 229 229 229 230 230 230 230 231 231 232 232 231 231 231 230 230 230 231 231 232 232 233 233 234 235 236 237 238 238 239 238 238 238 238 238 238 238 237 238 238 238 238 239 239 240 240 240 241 242 243 244 244 244 244 244 244 244 244 245 245 245 245 245 246 246 247 247 247 247
230 230 228 227 227 227 227 226 226 225 225 225 225 226 227 228 228 229 229 230 230 231 231 231 231 231 232 233 233 233 232 232 231 231 231 231 232 233 233 234 234 235 236 237 238 239 239 239 239 239 239 239 239 239 239 238 238 239 239 239 239 239 240 240 240 241 241 242 243 244 244 244 244 244 244 244 245 245 245 245 245 245 246 247 247 248
236 234 232 230 229 229 229 228 228 227 227 226 225 226 227 228 228 229 230 230 230 231 231 232 232 231 232 233 234 234 234 233 233 232 232 231 232 233 233 234 235 235 236 237 238 239 239 240 240 240 240 240 240 240 240 240 239 239 239 239 239 239 239 240 240 240 241 241 242 243 243 244 244 244 244 244 244 244 245 246 246 246 246 246 246 247
242 239 236 234 232 231 231 231 230 229 228 227 227 226 227 228 229 230 230 231 231 231 232 232 233 233 233 233 234 235 235 235 235 234 233 233 232 233 233 234 235 236 236 237 238 239 240 240 241 241 241 241 241 241 241 241 241 240 240 240 240 240 240 240 240 240 240 241 241 242 243 243 244 244 244 244 244 244 244 245 246 246 246 246 245 246
244 243 242 240 237 234 233 232 232 231 230 230 229 228 228 228 229 230 231 231 232 232 232 233 233 234 234 234 234 235 236 236 236 235 235 235 234 234 234 234 235 236 236 237 238 239 240 241 241 241 241 241 241 241 241 241 242 242 241 241 241 241 241 241 241 241 241 241 241 242 242 243 243 244 244 244 244 244 244 244 245 245 246 246 246 246
Height
10907 10912 10916 10920 10924 10929 10932 10936 10946 10955 10960 10963 10967 10972 10976 10980 10984 10988 10993 10998 11002 11002 11002 11004 11006 11008 11011 11014 11015 11017 11018 11019 11021 11022 11024 11025 11026 11027 11028 11029 11029 11029 11029 11030 11030 11030 11030 11030 11030 11030 11029 11029 11029 11028 11028 11028 11028 11027 11025 11024 11022 11022 11021 11021 11020 11019 11018 11017 11016 11015 11014 11013 11013 11011 11010 11007 11005 11004 11003 11002 11001 11000 10998 10996 10995 10993
10902 10906 10909 10912 10916 10921 10925 10933 10943 10949 10953 10958 10963 10968 10972 10976 10980 10984 10990 10995 10999 11001 11002 11002 11004 11006 11009 11012 11013 11015 11016 11017 11019 11021 11023 11025 11026 11027 11028 11028 11029 11029 11029 11030 11030 11031 11031 11030 11030 11030 11030 11030 11029 11029 11029 11029 11029 11028 11027 11025 11024 11023 11022 11021 11021 11020 11020 11019 11018 11017 11017 11016 11015 11014 11012 11010 11008 11007 11006 11005 11004 11003 11002 11000 10999 10998
10896 10899 10901 10905 10910 10915 10921 10930 10938 10942 10947 10954 10960 10965 10968 10971 10975 10980 10984 10986 10989 10995 10999 11001 11003 11005 11007 11010 11012 11013 11014 11016 11018 11020 11021 11023 11025 11026 11026 11027 11028 11029 11029 11030 11030 11031 11031 11031 11031 11031 11031 11030 11030 11030 11030 11030 11030 11029 11028 11027 11026 11025 11023 11022 11021 11021 11020 11020 11019 11018 11018 11017 11016 11015 11013 11012 11011 11010 11009 11008 11007 11006 11005 11004 11003 11001
10888 10889 10893 10899 10904 10909 10916 10924 10932 10937 10943 10950 10955 10961 10964 10968 10971 10975 10979 10980 10982 10989 10995 10997 11001 11003 11005 11008 11009 11010 11012 11014 11016 11018 11020 11022 11023 11024 11025 11025 11026 11027 11029 11030 11030 11031 11031 11031 11031 11031 11031 11031 11031 11031 11031 11031 11031 11030 11030 11029 11028 11027 11025 11024 11023 11022 11021 11021 11020 11019 11018 11018 11016 11015 11014 11014 11013 11013 11012 11011 11010 11009 11008 11007 11006 11004
10878 10881 10887 10893 10897 10902 10910 10918 10927 10933 10938 10944 10950 10955 10960 10964 10967 10970 10974 10977 10980 10986 10991 10995 10998 11001 11003 11005 11007 11008 11010 11012 11014 11016 11018 11020 11022 11023 11024 11024 11025 11026 11027 11029 11030 11030 11031 11031 11032 11032 11032 11032 11032 11032 11032 11032 11032 11032 11031 11031 11030 11029 11028 11027 11025 11024 11023 11022 11021 11020 11020 11018 11017 11017 11016 11016 11015 11015 11015 11014 11013 11012 11011 11009 11008 11007
10869 10875 10882 10888 10892 10897 10904 10914 10922 10927 10933 10939 10945 10949 10953 10958 10961 10965 10969 10972 10976 10980 10985 10990 10995 10998 11001 11003 11004 11006 11008 11010 11012 11014 11016 11018 11020 11022 11022 11023 11024 11025 11026 11028 11029 11030 11030 11031 11032 11032 11032 11033 11033 11033 11033 11033 11033 11033 11032 11032 11031 11031 11030 11029 11028 11027 11026 11025 11024 11023 11022 11021 11020 11020 11019 11018 11018 11017 11017 11016 11015 11014 11013 11012 11010 11009
10862 10870 10877 10882 10886 10891 10899 10908 10915 10921 10928 10934 10938 10942 10947 10951 10955 10959 10963 10968 10971 10975 10979 10984 10989 10994 10997 10999 11001 11003 11005 11007 11009 11011 11013 11016 11018 11020 11021 11022 11023 11024 11026 11027 11029 11029 11030 11031 11031 11032 11032 11033 11033 11033 11033 11033 11033 11033 11033 11032 11032 11032 11032 11031 11031 11030 11029 11028 11026 11025 11025 11024 11023 11022 11022 11021 11020 11019 11019 11018 11017 11016 11015 11014 11012 11011
10857 10864 10870 10876 10880 10886 10894 10901 10908 10916 10922 10926 10931 10937 10942 10945 10948 10952 10958 10964 10968 10972 10975 10979 10984 10988 10992 10995 10996 10999 11002 11004 11006 11009 11011 11013 11016 11018 11019 11020 11022 11024 11025 11027 11028 11029 11029 11030 11031 11031 11032 11032 11033 11033 11033 11033 11033 11033 11033 11033 11032 11032 11033 11032 11032 11031 11031 11030 11028 11027 11027 11026 11025 11024 11024 11023 11022 11021 11020 11019 11018 11018 11017 11016 11015 11013
10851 10858 10864 10869 10874 10880 10886 10893 10902 10909 10914 10920 10926 10932 10936 10938 10941 10946 10953 10960 10964 10967 10970 10974 10979 10983 10987 10991 10993 10996 10999 11002 11004 11007 11008 11011 11014 11016 11018 11019 11021 11023 11025 11026 11027 11028 11029 11029 11030 11031 11031 11032 11032 11033 11033 11033 11033 11033 11033 11033 11032 11033 11033 11033 11032 11032 11031 11031 11030 11029 11028 11027 11026 11026 11025 11024 11024 11023 11022 11021 11020 11019 11019 11018 11017 11016
10844 10851 10856 10863 10868 10872 10876 10883 10893 10900 10906 10914 10919 10923 10926 10930 10936 10943 10948 10953 10957 10961 10965 10970 10975 10979 10984 10987 10990 10994 10997 11000 11003 11005 11007 11009 11012 11014 11016 11018 11020 11022 11023 11025 11026 11027 11028 11028 11029 11030 11030 11031 11031 11032 11032 11032 11033 11033 11032 11032 11032 11032 11032 11032 11032 11032 11032 11031 11030 11030 11029 11028 11027 11027 11026 11025 11025 11024 11023 11022 11021 11021 11020 11019 11019 11018
10834 10841 10848 10855 10860 10864 10867 10875 10886 10892 10899 10906 10910 10914 10917 10922 10930 10936 10941 10946 10952 10957 10962 10967 10972 10976 10980 10984 10987 10991 10993 10997 11000 11003 11004 11006 11009 11012 11014 11016 11019 11020 11022 11023 11025 11026 11026 11027 11028 11029 11029 11030 11030 11031 11031 11031 11032 11032 11032 11032 11031 11031 11031 11032 11032 11031 11031 11031 11031 11030 11029 11029 11028 11027 11027 11026 11026 11025 11024 11023 11023 11022 11021 11020 11020 11019
10821 10829 10838 10845 10851 10855 10860 10870 10880 10886 10893 10899 10903 10907 10911 10916 10924 10930 10936 10943 10949 10953 10958 10962 10967 10972 10976 10980 10983 10986 10989 10993 10996 10999 11001 11004 11007 11010 11012 11015 11017 11019 11021 11022 11024 11024 11025 11025 11026 11027 11028 11028 11029 11029 11030 11030 11031 11031 11031 11031 11030 11030 11030 11031 11031 11031 11031 11031 11031 11030 11030 11029 11029 11028 11028 11027 11027 11026 11025 11025 11024 11023 11022 11022 11021 11021
10811 10820 10828 10834 10841 10847 10854 10864 10873 10880 10887 10892 10897 10903 10907 10912 10920 10927 10934 10942 10946 10948 10952 10956 10960 10966 10971 10975 10978 10981 10985 10989 10993 10995 10998 11001 11004 11008 11011 11014 11016 11018 11020 11022 11023 11023 11023 11024 11025 11026 11026 11027 11028 11028 11028 11029 11029 11030 11030 11030 11029 11029 11029 11029 11030 11030 11030 11030 11030 11031 11031 11030 11030 11029 11029 11028 11028 11028 11027 11026 11025 11025 11024 11023 11022 11022
10805 10812 10818 10826 10834 10841 10849 10858 10867 10874 10880 10885 10891 10897 10903 10909 10917 10925 10931 10938 10940 10941 10945 10949 10955 10961 10967 10971 10975 10978 10981 10985 10989 10991 10993 10998 11002 11007 11011 11014 11018 11021 11022 11022 11022 11022 11022 11022 11023 11024 11025 11026 11026 11027 11027 11027 11027 11028 11028 11029 11028 11028 11028 11028 11029 11030 11030 11030 11030 11030 11031 11031 11031 11030 11030 11029 11029 11029 11028 11028 11027 11026 11026 11025 11024 11024
10797 10804 10811 10820 10828 10836 10843 10851 10861 10868 10873 10879 10885 10891 10897 10904 10912 10919 10925 10930 10932 10935 10940 10945 10952 10959 10964 10968 10971 10974 10977 10981 10984 10987 10990 10996 11001 11006 11010 11012 11016 11021 11022 11021 11020 11019 11020 11021 11022 11023 11024 11025 11026 11026 11026 11026 11026 11026 11026 11027 11028 11028 11027 11028 11028 11029 11030 11030 11030 11030 11031 11031 11031 11031 11031 11030 11030 11030 11030 11029 11029 11028 11027 11027 11026 11025
10789 10796 10804 10813 10823 10832 10838 10845 10855 10861 10865 10870 10876 10884 10891 10898 10903 10910 10914 10915 10918 10927 10935 10941 10948 10955 10959 10963 10965 10967 10971 10975 10979 10983 10988 10994 10998 11001 11004 11006 11011 11017 11017 11015 11014 11013 11015 11019 11021 11022 11023 11023 11024 11025 11025 11025 11025 11025 11025 11026 11027 11028 11028 11028 11028 11029 11029 11030 11030 11030 11031 11031 11031 11032 11032 11031 11031 11031 11031 11030 11030 11030 11029 11028 11028 11027
10782 10789 10798 10809 10819 10825 10830 10838 10845 10851 10856 10861 10867 10876 10884 10890 10896 10898 10899 10900 10908 10920 10930 10935 10944 10950 10953 10956 10959 10962 10966 10970 10975 10980 10984 10989 10993 10997 11000 11003 11009 11012 11009 11008 11008 11008 11013 11018 11018 11018 11019 11020 11021 11023 11023 11023 11023 11024 11025 11026 11027 11028 11029 11029 11028 11029 11030 11030 11031 11031 11031 11031 11032 11032 11032 11032 11032 11032 11032 11032 11031 11031 11031 11030 11029 11029
10779 10785 10796 10808 10813 10817 10823 10830 10836 10843 10849 10854 10862 10871 10877 10883 10887 10888 10891 10896 10907 10920 10928 10934 10940 10944 10948 10950 10953 10957 10963 10969 10975 10978 10980 10984 10988 10992 10995 11000 11004 11005 11003 11003 11004 11005 11011 11015 11011 11011 11015 11018 11019 11020 11021 11021 11022 11023 11024 11026 11028 11029 11030 11030 11030 11030 11030 11031 11032 11032 11032 11032 11032 11032 11033 11033 11033 11033 11033 11032 11032 11032 11032 11032 11031 11031
10775 10781 10791 10799 10803 10810 10819 10824 10830 10837 10842 10850 10860 10866 10870 10875 10877 10879 10884 10891 10902 10915 10923 10928 10933 10938 10943 10947 10950 10955 10961 10968 10973 10974 10975 10979 10983 10987 10991 10996 10999 11000 11000 11001 11002 11004 11009 11010 11006 11008 11015 11017 11017 11018 11019 11020 11021 11022 11024 11025 11027 11028 11030 11031 11031 11031 11031 11031 11032 11033 11033 11032 11033 11033 11033 11033 11033 11033 11033 11033 11033 11033 11033 11033 11033 11032
10768 10774 10782 10789 10794 10804 10812 10817 10825 10831 10837 10846 10851 10854 10860 10867 10869 10873 10878 10884 10896 10909 10916 10921 10927 10932 10937 10941 10945 10951 10959 10965 10968 10968 10970 10974 10978 10982 10987 10992 10994 10994 10996 10998 11000 11002 11004 11006 11006 11010 11015 11016 11015 11016 11019 11020 11021 11022 11023 11024 11025 11027 11028 11030 11030 11030 11030 11030 11031 11032 11032 11032 11033 11033 11034 11034 11034 11034 11034 11034 11034 11034 11034 11034 11034 11034
10760 10765 10774 10783 10791 10799 10805 10812 10820 10826 10832 10838 10839 10843 10852 10857 10860 10866 10870 10876 10888 10899 10906 10913 10918 10922 10927 10933 10939 10946 10952 10956 10958 10961 10964 10968 10972 10977 10981 10986 10989 10990 10992 10995 10997 10999 11001 11003 11006 11009 11013 11013 11013 11015 11018 11020 11021 11022 11022 11023 11025 11026 11027 11028 11028 11029 11029 11029 11029 11030 11031 11032 11032 11033 11034 11034 11034 11035 11035 11035 11034 11034 11034 11034 11035 11035
10751 10757 10765 10776 10784 10791 10798 10805 10812 10818 10824 10829 10832 10838 10842 10844 10850 10856 10857 10864 10879 10891 10899 10905 10909 10913 10919 10928 10936 10941 10945 10949 10952 10955 10959 10963 10967 10970 10975 10980 10984 10985 10987 10990 10993 10996 10999 11001 11004 11006 11008 11009 11010 11014 11018 11019 11020 11021 11021 11022 11024 11025 11026 11027 11028 11029 11029 11029 11029 11029 11030 11031 11032 11033 11034 11034 11035 11035 11035 11036 11035 11035 11035 11035 11035 11035
10742 10749 10758 10769 10776 10781 10788 10793 10799 10807 10816 10823 10828 10829 10829 10833 10840 10845 10847 10858 10874 10886 10892 10898 10903 10908 10915 10923 10931 10937 10942 10947 10948 10949 10952 10958 10961 10964 10969 10974 10977 10979 10982 10985 10988 10992 10995 10998 11000 11002 11003 11005 11008 11013 11016 11018 11018 11018 11019 11020 11022 11024 11026 11027 11027 11028 11028 11028 11028 11029 11029 11031 11032 11033 11034 11034 11035 11035 11035 11036 11036 11036 11036 11035 11035 11035
10734 10742 10752 10762 10768 10773 10778 10784 10792 10803 10811 10815 10814 10813 10816 10824 10832 10838 10844 10855 10869 10878 10884 10891 10897 10904 10911 10918 10926 10932 10936 10939 10940 10940 10944 10950 10954 10958 10963 10967 10970 10973 10976 10980 10983 10986 10990 10993 10995 10997 10999 11002 11007 11012 11016 11018 11018 11018 11018 11020 11020 11022 11024 11025 11025 11025 11025 11024 11026 11027 11028 11028 11030 11032 11033 11034 11034 11035 11035 11035 11036 11036 11036 11035 11035 11035
10728 10735 10743 10751 10760 10766 10769 10777 10788 10795 10800 10801 10798 10800 10810 10820 10827 10834 10840 10849 10860 10869 10877 10884 10890 10897 10904 10910 10917 10924 10926 10927 10930 10933 10938 10944 10948 10952 10957 10961 10964 10969 10973 10976 10977 10979 10983 10988 10991 10992 10995 10999 11004 11010 11014 11017 11017 11016 11016 11017 11018 11020 11021 11021 11021 11020 11020 11021 11023 11026 11026 11024 11025 11028 11032 11033 11034 11034 11035 11035 11035 11035 11035 11035 11035 11034
10722 10728 10734 10743 10752 10757 10761 10772 10781 10785 10787 10787 10786 10793 10805 10814 10819 10826 10834 10842 10852 10862 10872 10878 10884 10890 10897 10903 10911 10916 10918 10919 10922 10926 10931 10938 10943 10947 10951 10955 10958 10963 10968 10971 10972 10974 10978 10982 10986 10988 10991 10995 11000 11005 11008 11011 11012 11011 11011 11013 11016 11018 11019 11019 11018 11017 11017 11020 11023 11025 11024 11021 11021 11024 11029 11032 11033 11033 11033 11034 11034 11034 11034 11034 11034 11034
10713 10720 10727 10736 10744 10750 10757 10768 10774 10776 10779 10779 10780 10789 10800 10805 10812 10822 10833 10842 10849 10858 10867 10873 10879 10885 10891 10898 10904 10907 10908 10909 10912 10918 10924 10929 10935 10940 10944 10948 10951 10956 10961 10964 10967 10970 10973 10977 10981 10984 10987 10991 10995 10999 11002 11005 11007 11008 11009 11010 11012 11014 11016 11017 11017 11016 11015 11018 11021 11022 11020 11020 11022 11025 11027 11029 11031 11032 11032 11032 11032 11033 11033 11032 11033 11033
10706 10713 10721 10730 10738 10746 10753 10761 10765 10767 10768 10770 10775 10785 10794 10798 10807 10820 10831 10837 10843 10852 10860 10868 10876 10883 10887 10890 10894 10897 10900 10902 10904 10909 10915 10920 10927 10933 10938 10942 10946 10950 10954 10958 10961 10964 10968 10971 10975 10979 10983 10986 10990 10993 10997 10999 11002 11005 11006 11008 11009 11011 11012 11013 11014 11012 11012 11014 11017 11018 11019 11022 11027 11028 11027 11027 11028 11030 11030 11031 11031 11032 11032 11032 11031 11032
10701 10706 10715 10724 10732 10740 10746 10752 10755 10756 10756 10758 10764 10776 10785 10791 10800 10815 10825 10829 10835 10843 10852 10862 10870 10875 10879 10883 10886 10890 10894 10895 10894 10898 10907 10914 10919 10925 10930 10935 10939 10943 10948 10951 10955 10958 10962 10966 10970 10974 10978 10981 10985 10988 10991 10994 10998 11001 11004 11004 11005 11007 11007 11008 11009 11009 11009 11010 11013 11016 11018 11022 11026 11026 11025 11024 11025 11027 11028 11029 11030 11030 11031 11031 11030 11030
10694 10698 10708 10718 10725 10731 10737 10742 10744 10746 10747 10749 10755 10767 10779 10785 10794 10809 10818 10821 10826 10835 10845 10854 10860 10865 10870 10875 10879 10884 10887 10887 10886 10892 10901 10907 10911 10916 10922 10927 10932 10936 10940 10944 10948 10952 10956 10960 10964 10968 10973 10976 10979 10983 10985 10988 10993 10997 10999 11000 11000 11001 11002 11003 11006 11007 11007 11008 11011 11013 11015 11018 11020 11021 11022 11022 11022 11024 11026 11026 11027 11028 11029 11029 11030 11030
10686 10690 10700 10710 10717 10723 10729 10734 10736 10738 10738 10741 10749 10762 10773 10778 10785 10796 10805 10810 10817 10826 10836 10844 10850 10856 10861 10867 10871 10876 10878 10879 10881 10885 10891 10897 10903 10908 10913 10918 10924 10929 10932 10936 10940 10945 10949 10953 10958 10963 10967 10970 10974 10977 10980 10983 10987 10990 10993 10994 10995 10996 10997 10998 11001 11003 11005 11008 11010 11010 11013 11016 11017 11016 11018 11018 11019 11021 11023 11023 11024 11026 11026 11027 11028 11028
10678 10682 10690 10700 10708 10714 10721 10724 10725 10727 10729 10734 10743 10754 10764 10770 10775 10784 10796 10803 10809 10818 10826 10833 10839 10845 10851 10857 10860 10863 10866 10870 10873 10876 10880 10887 10895 10900 10904 10908 10914 10919 10924 10929 10932 10936 10941 10946 10951 10956 10960 10964 10967 10970 10974 10977 10980 10982 10985 10988 10989 10991 10992 10992 10993 10997 11000 11003 11006 11008 11011 11015 11015 11013 11013 11015 11016 11017 11018 11019 11021 11022 11024 11025 11025 11025
10670 10674 10681 10691 10699 10705 10710 10713 10715 10718 10721 10726 10734 10744 10753 10761 10768 10777 10788 10795 10799 10805 10812 10819 10825 10831 10837 10843 10847 10851 10856 10860 10863 10866 10870 10877 10885 10890 10895 10900 10905 10910 10915 10920 10923 10927 10932 10937 10942 10948 10953 10957 10960 10963 10967 10970 10973 10975 10978 10981 10983 10985 10986 10985 10986 10989 10993 10997 11001 11004 11008 11011 11010 11008 11009 11010 11011 11013 11014 11015 11017 11019 11020 11021 11022 11022
10662 10666 10674 10682 10689 10695 10700 10703 10706 10710 10714 10718 10725 10734 10741 10747 10755 10764 10773 10782 10789 10795 10800 10807 10814 10819 10826 10831 10836 10843 10848 10851 10855 10858 10862 10868 10875 10880 10885 10890 10896 10901 10905 10910 10914 10919 10923 10928 10933 10938 10944 10948 10952 10955 10958 10962 10965 10969 10972 10974 10975 10977 10979 10980 10981 10984 10987 10991 10997 11001 11005 11007 11005 11004 11004 11005 11007 11008 11010 11011 11013 11015 11016 11017 11018 11019
10655 10660 10668 10674 10680 10686 10691 10694 10698 10702 10706 10712 10719 10725 10728 10734 10743 10751 10759 10770 10780 10785 10791 10799 10804 10809 10816 10822 10827 10834 10840 10845 10848 10851 10854 10860 10866 10870 10875 10880 10886 10891 10895 10900 10906 10910 10915 10920 10925 10930 10935 10940 10944 10947 10949 10952 10957 10961 10965 10966 10968 10969 10972 10974 10976 10978 10981 10985 10991 10996 10999 11001 11000 10999 10999 11001 11002 11004 11006 11007 11008 11010 11012 11013 11014 11014
10646 10652 10659 10665 10669 10674 10679 10685 10690 10695 10700 10705 10708 10711 10715 10725 10736 10744 10752 10762 10772 10779 10784 10789 10793 10799 10806 10812 10819 10826 10832 10836 10839 10842 10847 10853 10857 10861 10864 10870 10876 10882 10886 10891 10896 10901 10906 10911 10916 10921 10926 10930 10934 10937 10939 10943 10947 10951 10956 10959 10961 10963 10965 10968 10971 10973 10975 10979 10983 10988 10991 10992 10993 10994 10994 10996 10998 10999 11001 11002 11004 11005 11007 11008 11009 11010
10638 10643 10650 10656 10660 10664 10669 10677 10684 10689 10694 10698 10700 10701 10707 10716 10727 10737 10745 10753 10764 10772 10776 10778 10784 10791 10798 10805 10812 10817 10820 10822 10827 10834 10840 10844 10847 10850 10855 10861 10868 10873 10877 10881 10886 10891 10896 10901 10906 10911 10917 10921 10924 10927 10930 10934 10938 10942 10946 10950 10954 10957 10959 10962 10965 10967 10969 10972 10975 10979 10982 10985 10987 10988 10989 10991 10993 10994 10996 10997 10999 11001 11002 11003 11004 11005
10631 10636 10642 10647 10652 10656 10663 10671 10677 10681 10686 10691 10695 10699 10704 10711 10720 10730 10736 10741 10750 10758 10763 10768 10776 10783 10790 10797 10803 10806 10807 10810 10818 10826 10831 10834 10838 10842 10847 10851 10856 10860 10864 10869 10875 10880 10885 10890 10896 10902 10908 10912 10915 10918 10922 10925 10929 10933 10937 10941 10945 10949 10952 10955 10958 10960 10963 10965 10968 10971 10974 10977 10979 10981 10983 10985 10986 10988 10990 10991 10993 10995 10997 10998 11000 11001
10624 10628 10633 10638 10642 10647 10654 10663 10670 10675 10679 10685 10691 10696 10699 10703 10710 10720 10725 10728 10736 10746 10754 10761 10767 10772 10778 10786 10791 10795 10798 10803 10811 10820 10825 10829 10833 10835 10836 10838 10841 10844 10850 10856 10863 10869 10875 10880 10887 10893 10898 10902 10905 10908 10912 10916 10920 10924 10927 10932 10936 10940 10943 10947 10949 10952 10955 10957 10960 10962 10965 10968 10971 10973 10975 10977 10979 10981 10983 10985 10987 10989 10991 10993 10994 10995
10616 10621 10626 10629 10632 10637 10645 10653 10662 10668 10674 10680 10685 10689 10691 10693 10700 10708 10711 10715 10726 10738 10746 10753 10759 10763 10767 10773 10780 10785 10790 10796 10804 10813 10819 10823 10825 10824 10823 10824 10826 10830 10837 10844 10851 10858 10865 10870 10876 10882 10888 10892 10895 10898 10902 10906 10910 10914 10917 10921 10925 10929 10933 10936 10940 10943 10946 10949 10951 10954 10957 10960 10963 10965 10967 10969 10972 10974 10976 10978 10981 10983 10984 10986 10988 10990
10610 10614 10619 10622 10625 10630 10638 10646 10654 10661 10667 10672 10676 10679 10681 10686 10693 10697 10700 10707 10719 10729 10735 10742 10748 10751 10755 10760 10767 10774 10780 10787 10794 10802 10807 10811 10812 10811 10808 10808 10812 10818 10825 10832 10840 10848 10854 10859 10864 10871 10878 10882 10885 10888 10891 10896 10900 10904 10907 10911 10914 10918 10922 10926 10930 10934 10937 10940 10943 10946 10949 10952 10955 10957 10959 10961 10964 10966 10968 10970 10973 10975 10977 10980 10982 10984
10605 10609 10613 10615 10618 10623 10629 10638 10647 10655 10660 10664 10667 10669 10673 10678 10684 10688 10692 10699 10708 10715 10721 10728 10733 10736 10740 10746 10754 10761 10767 10774 10781 10787 10792 10795 10796 10796 10796 10797 10802 10808 10814 10821 10828 10835 10842 10848 10854 10860 10866 10870 10873 10877 10881 10886 10890 10895 10898 10901 10905 10908 10912 10915 10919 10924 10928 10931 10934 10937 10940 10943 10946 10949 10951 10953 10955 10958 10960 10962 10964 10966 10969 10972 10974 10976
10600 10603 10606 10609 10612 10616 10622 10630 10640 10647 10652 10655 10657 10660 10664 10668 10673 10679 10684 10688 10692 10698 10706 10713 10718 10722 10726 10732 10740 10748 10754 10760 10767 10772 10776 10779 10783 10786 10789 10791 10795 10798 10803 10809 10816 10822 10829 10838 10845 10849 10852 10856 10861 10866 10871 10876 10881 10885 10889 10892 10896 10899 10902 10905 10908 10913 10917 10920 10924 10927 10930 10933 10936 10940 10942 10945 10947 10949 10951 10953 10955 10957 10960 10963 10966 10968
10594 10596 10600 10603 10606 10610 10615 10623 10632 10637 10641 10644 10648 10651 10653 10657 10662 10668 10672 10675 10679 10684 10692 10700 10705 10710 10715 10721 10729 10737 10743 10747 10753 10758 10764 10769 10775 10779 10782 10784 10786 10788 10791 10796 10803 10811 10819 10827 10832 10837 10840 10844 10850 10856 10861 10866 10870 10874 10878 10882 10886 10889 10892 10894 10896 10901 10906 10909 10912 10917 10920 10923 10926 10929 10933 10936 10939 10940 10941 10943 10946 10948 10951 10954 10957 10960
10589 10591 10595 10598 10601 10605 10609 10615 10622 10626 10630 10634 10638 10640 10643 10646 10650 10655 10660 10664 10669 10674 10680 10687 10693 10698 10704 10710 10717 10723 10729 10734 10740 10747 10754 10761 10766 10769 10771 10773 10776 10778 10781 10785 10791 10800 10808 10814 10818 10822 10827 10832 10838 10843 10849 10854 10858 10862 10866 10870 10874 10878 10881 10884 10886 10890 10894 10897 10901 10905 10909 10913 10916 10918 10922 10927 10930 10931 10932 10934 10937 10939 10943 10945 10948 10951
10583 10586 10589 10591 10595 10598 10601 10606 10612 10617 10621 10626 10629 10632 10636 10639 10642 10646 10652 10656 10660 10665 10671 10677 10683 10687 10692 10697 10702 10707 10714 10721 10729 10737 10744 10749 10753 10756 10758 10760 10763 10767 10771 10774 10779 10786 10793 10799 10804 10808 10813 10819 10825 10831 10836 10840 10845 10850 10854 10858 10862 10866 10870 10873 10876 10879 10882 10885 10889 10893 10898 10902 10904 10908 10912 10916 10918 10920 10923 10925 10928 10930 10933 10936 10938 10941
10577 10579 10581 10584 10587 10589 10592 10597 10602 10608 10612 10616 10620 10624 10628 10632 10635 10638 10643 10646 10650 10655 10661 10667 10672 10676 10679 10682 10685 10692 10700 10710 10719 10726 10732 10737 10740 10742 10744 10746 10750 10754 10758 10762 10767 10772 10778 10784 10790 10796 10801 10807 10813 10818 10823 10827 10832 10837 10841 10846 10850 10854 10859 10863 10866 10869 10872 10874 10877 10881 10886 10890 10893 10897 10901 10904 10906 10909 10912 10916 10919 10921 10923 10926 10928 10931
10571 10573 10576 10579 10580 10582 10585 10589 10593 10598 10602 10607 10611 10614 10618 10622 10624 10626 10629 10633 10638 10642 10647 10653 10658 10663 10665 10667 10671 10679 10688 10698 10706 10713 10719 10724 10726 10728 10730 10732 10736 10741 10745 10750 10754 10759 10763 10770 10777 10784 10790 10795 10799 10804 10809 10814 10820 10825 10830 10835 10839 10843 10847 10851 10855 10858 10861 10863 10865 10869 10873 10878 10882 10885 10889 10892 10895 10897 10901 10904 10908 10911 10914 10916 10919 10921
10566 10567 10569 10571 10573 10575 10578 10582 10585 10589 10593 10597 10601 10604 10607 10610 10611 10613 10616 10621 10626 10630 10635 10639 10644 10649 10654 10657 10661 10668 10676 10683 10690 10697 10704 10708 10712 10714 10716 10719 10723 10729 10734 10738 10742 10746 10750 10757 10765 10771 10776 10780 10784 10789 10796 10802 10808 10813 10817 10822 10827 10831 10835 10838 10842 10846 10849 10852 10855 10858 10862 10865 10869 10873 10877 10881 10883 10885 10888 10891 10897 10901 10904 10906 10908 10910
10559 10560 10561 10563 10566 10568 10571 10574 10577 10580 10583 10586 10590 10594 10596 10599 10601 10603 10606 10610 10614 10619 10624 10628 10633 10638 10644 10648 10652 10657 10663 10669 10675 10681 10687 10692 10697 10701 10704 10707 10711 10717 10722 10727 10730 10734 10738 10745 10752 10757 10761 10765 10770 10776 10783 10789 10794 10799 10804 10809 10813 10817 10821 10825 10829 10833 10837 10840 10844 10848 10851 10854 10857 10860 10864 10868 10871 10874 10877 10881 10885 10890 10892 10894 10896 10898
10553 10554 10555 10557 10559 10562 10564 10566 10569 10572 10574 10577 10581 10584 10587 10589 10592 10594 10597 10600 10604 10609 10614 10619 10623 10628 10632 10637 10642 10645 10649 10654 10660 10665 10670 10675 10681 10687 10692 10696 10699 10704 10709 10713 10718 10722 10727 10732 10736 10740 10744 10749 10756 10763 10768 10774 10779 10784 10789 10794 10798 10803 10807 10812 10816 10821 10824 10829 10833 10836 10840 10843 10845 10848 10851 10855 10858 10861 10866 10870 10873 10876 10878 10880 10883 10886